Other Public Products
Issued by NWS Grand Forks, ND

Home | Current Version | Previous Version | Graphics & Text | Print | Product List | Glossary On
Versions: 1 2 3 4 5 6 7 8 9 10 11 12 13 14 15 16 17 18 19 20 21 22 23 24 25 26 27 28 29 30 31 32 33 34 35 36 37 38 39 40 41 42 43 44 45 46 47 48 49 50
000
FPUS83 KFGF 010110
OPUFGF
PRAIRIE TO PINES WEATHER ROUNDUP
NATIONAL WEATHER SERVICE EASTERN NORTH DAKOTA/GRAND FORKS ND
800 PM CDT WED AUG 31 2016

 **SATELLITE DATA USED TO AUGMENT SKY COVER AT AUTOMATED STATIONS**
 *****  WEATHER ACROSS EASTERN NORTH DAKOTA  *****

CITY           SKY/WX    TMP DP  RH WIND       PRES   REMARKS
GRAND FORKS    MOCLDY    70  56  61 E7        30.20S
GRAND FORKS AF CLOUDY    68  56  65 NE5       30.21S
GRAND CITY NWS   N/A     68 N/A N/A NE5         N/A
BUXTON           N/A     73  64  73 NE2         N/A
DEVILS LAKE    CLOUDY    69  57  65 E14       30.18F
FARGO          CLOUDY    69  57  65 NE7       30.19S
WAHPETON ARPT  CLEAR     72  52  49 NE5       30.19S
$$

 *****  WEATHER ACROSS CENTRAL AND WESTERN NORTH DAKOTA  *****

CITY           SKY/WX    TMP DP  RH WIND       PRES   REMARKS
JAMESTOWN      CLEAR     69  57  65 E7        30.20R
BISMARCK       CLEAR     72  61  68 E13       30.16R
MINOT          CLEAR     74  55  51 SE13      30.09F
MINOT AFB      CLEAR     74  55  52 SE13G21   30.08S
GARRISON         N/A     71  62  73 SE18G32   30.11F
WILLISTON      CLEAR     90  48  23 SE15      29.97R
DICKINSON      CLEAR     80  48  32 SE14      30.06R
HETTINGER      CLEAR     81  54  39 SE15      30.11R
$$

 *****  OTHER OBSERVATIONS NORTHEAST NORTH DAKOTA  *****

CITY           SKY/WX    TMP DP  RH WIND       PRES   REMARKS
WALHALLA       NOT AVBL
LANGDON        FAIR      66  54  63 E12       30.23F
CAVALIER       FAIR      66  55  68 CALM      30.22S
GRAFTON        FAIR      66  57  72 N5        30.23S
CANDO          NOT AVBL
FORT TOTTEN      N/A     69  56  63 E7        29.95S
ROLLA          MOCLDY    66  55  68 E10G17    30.23R
RUGBY          FAIR      66  57  72 E14       30.16F
 ***** THE ABOVE OBSERVATIONS ARE NON NWS ARE NOT QUALITY
        CONTROLLED AND MAY MIS-REPORT RAIN FOR SNOW...
$$

 *****  OTHER OBSERVATIONS SOUTHEAST NORTH DAKOTA *****

CITY           SKY/WX    TMP DP  RH WIND       PRES   REMARKS
COOPERSTOWN    NOT AVBL
VALLEY CITY    FAIR      68  57  68 E8        30.22R
OAKES            N/A    N/A N/A N/A MISG        N/A
GWINNER        FAIR      70  61  73 NE6       30.19S
SHEYENNE NWR     N/A     72  56  58 E6        29.95S
BUFFALO          N/A     69  53  56 E6          N/A
WYNDMERE       NOT AVBL
 ***** THE ABOVE OBSERVATIONS ARE NON NWS ARE NOT QUALITY
       CONTROLLED AND MAY MIS-REPORT RAIN FOR SNOW...
$$

  *****  WEATHER ACROSS NORTHERN MINNESOTA  *****

CITY           SKY/WX    TMP DP  RH WIND       PRES   REMARKS
FLAG ISLAND    CLEAR     64  54  68 CALM      30.25R
WARROAD        CLEAR     63  55  77 CALM      30.26R
ROSEAU         CLEAR     63  55  77 E3        30.24F
HALLOCK        CLEAR     66  55  68 NE7       30.22R
THF RVR FALLS  CLOUDY    65  55  70 NE7       30.23S
HALSTAD          N/A     68  59  73 E5          N/A
FOSSTON        CLOUDY    61  55  82 CALM      30.23R
BAUDETTE       CLEAR     61  54  77 N6        30.24R
WASKISH        CLEAR     64  55  72 N3        30.24R
CROOKSTON      CLOUDY    68  57  68 E3        30.22S
$$
  *****  WEATHER ACROSS CENTRAL AND WEST MINNESOTA  *****

CITY           SKY/WX    TMP DP  RH WIND       PRES   REMARKS
BEMIDJI        CLEAR     63  55  74 N3        30.23R
PARK RAPIDS    CLEAR     68  54  60 NE6       30.22R
WADENA         NOT AVBL
DETROIT LAKES  CLEAR     68  54  60 CALM      30.23R
MOORHEAD       CLOUDY    70  55  60 NE6       30.20S
FERGUS FALLS   CLEAR     72  55  56 N5        30.20R
ELBOW LAKE     FAIR      72  57  58 NE3       30.20R
MORRIS MN      CLEAR     72  61  68 NE3       30.19R
STAPLES        CLEAR     66  54  63 CALM      30.21R
WHEATON        CLEAR     70  64  83 E3        30.20R
$$
  *****  WEATHER ELSEWHERE ACROSS MINNESOTA  *****

CITY           SKY/WX    TMP DP  RH WIND       PRES   REMARKS
DULUTH         PTCLDY    64  54  69 CALM      30.20R
INTRNTL FALLS  CLEAR     61  52  72 CALM      30.22R
ELY            PTCLDY    63  52  67 CALM      30.21R
CLOQUET        CLOUDY    66  54  63 CALM      30.20R
BRAINERD       CLEAR     67  56  67 N6        30.21R
HIBBING        CLEAR     59  54  83 N3        30.22R
ALEXANDRIA     CLEAR     70  55  59 NE3       30.21R
SAINT CLOUD    CLEAR     67  53  61 N3        30.18R
MINNEAPOLIS    PTCLDY    72  48  42 NE6       30.16R
$$

  *****  WEATHER ACROSS SOUTH DAKOTA  *****

CITY           SKY/WX    TMP DP  RH WIND       PRES   REMARKS
SIOUX FALLS    MOCLDY    73  60  63 NE6       30.17R
BROOKINGS      CLEAR     74  59  59 E6        30.19R
WATERTOWN      CLEAR     74  58  57 E7        30.19R
HURON          CLEAR     76  58  53 SE5       30.14S
SISSETON         N/A     70  62  76 CALM      30.17R
ABERDEEN       CLEAR     75  63  66 E6        30.16R
MITCHELL       CLEAR     76  59  55 S6        30.15S
PIERRE         CLEAR     79  62  56 SE13      30.11S
MOBRIDGE       CLEAR     78  59  51 E12       30.11S
RAPID CITY     CLEAR     75  55  49 SE13      30.13F
$$

  *****  SOME WEATHER IN NEARBY STATES *****

CITY           SKY/WX    TMP DP  RH WIND       PRES   REMARKS
GLASGOW MT     CLEAR     93  44  18 SE15      29.83F
GREAT FALLS MT CLOUDY    83  34  17 W18G39    29.95R
CHEYENNE WY    CLEAR     69  46  43 SE12      30.28R
SCOTTSBLUFF NE CLEAR     75  58  55 SE14G23   30.19R
OMAHA NE       PTCLDY    74  60  61 NE7       30.14R
DES MOINES IA  PTCLDY    73  58  59 NE6       30.13R
DAVENPORT IA   CLEAR     65  59  81 N6        30.10S
CHICAGO IL     PTCLDY    69  54  58 N9        30.08S
EAU CLAIRE WI  CLEAR     67  56  67 N5        30.15R
LA CROSSE WI   CLEAR     70  56  61 N3        30.13R
$$

  *****  SOME NATIONAL WEATHER *****

CITY           SKY/WX    TMP DP  RH WIND       PRES   REMARKS
LA GUARDIA NY  CLOUDY    81  67  62 S10       29.88S
RALEIGH NC     MOCLDY    81  69  67 S7        29.93R
ATLANTA GA     PTCLDY    87  63  44 E6        29.91R
NEW ORLEANS LA PTCLDY    90  73  57 E6        29.81R HX  98
OKLAHOMA CITY  LGT RAIN  73  70  90 NW7       30.06R
ALBUQUERQUE NM PTCLDY    78  54  43 E20       30.19R
SALT LAKE CITY PTSUNNY   93  34  12 NE8       29.95F
LOS ANGELES CA MOSUNNY   72  62  71 W13       29.83S
BOISE ID       SUNNY     90  34  13 NW13      29.83S
SEATTLE WA     CLOUDY    68  57  68 S6        29.98F
$$

*** WEATHER ACROSS MANITOBA...SASKATCHEWAN AND ONTARIO ***
                ***ONTARIO***

CITY           SKY/WX    TMP DP  RH WIND       PRES   REMARKS
GERALDTON      CLOUDY    55  52  88 N7        30.21R
THUNDER BAY    PTCLDY    61  50  67 N8        30.20R
SIOUX LOOKOUT  PTCLDY    54  48  82 N3        30.28R
TORONTO        PTCLDY    68  54  60 N13G21    29.95R
BIG TROUT LK   CLOUDY    50  48  93 N3        30.32S
PICKLE LAKE    CLOUDY    54  50  87 N7        30.30R
DRYDEN         CLOUDY    59  50  72 NE12G17   30.27R
KENORA         PTCLDY    57  50  77 NE3       30.28R
$$
                *** MANITOBA***

CITY           SKY/WX    TMP DP  RH WIND       PRES   REMARKS
BRANDON        MOCLDY    66  55  68 E14       30.20F
DAUPHIN        CLEAR     61  54  77 E9        30.23S
ISLAND LAKE    CLOUDY    55  50  82 NE5       30.34S
PILOT MOUND      N/A     63  54  72 E7          N/A
THE PAS        PTCLDY    61  50  67 SE7       30.24F
THOMPSON       PTCLDY    61  43  51 VRB2      30.30F
WINNIPEG       MOCLDY    63  54  72 NE9       30.25S
LYNN LAKE      CLEAR     61  46  59 MISG      30.24F
CHURCHILL      MOCLDY    52  43  71 E7        30.34S
GILLAM         PTCLDY    57  46  67 SE2       30.33S
$$
                ***SASKATCHEWAN***

CITY           SKY/WX    TMP DP  RH WIND       PRES   REMARKS
ESTEVAN        PTCLDY    70  61  73 E15G29    30.04S
KINDERSLEY     MOCLDY    73  61  64 SE9G17    29.89F
LLOYDMINSTER   MOCLDY    72  57  60 E15G24    29.89F
PRINCE ALBERT  CLOUDY    68  55  64 E16       30.06F
REGINA         MOCLDY    73  57  56 E22G31    29.99F
YORKTON        PTCLDY    64  55  72 E14G22    30.14S   C1F1C2F2C3F3C4F4C5F5C6F6C7F7C8F8C9F9CaFaCbFbCcFcCdFdCe!



USA.gov is the U.S. government's official web portal to all federal, state and local government web resources and services.